Retour au catalogue

STARLINK-30884

ActifCommunicationsVLEO
NORAD 58372·PAYLOAD·🇺🇸 United States

Lancé Nov 18, 2023 depuis Cape Canaveral Space Force Station

Loading…

Prochains Passages (prochaines 24 heures)

TLE

FraisSource: CelesTrak SupGP

Époque: Sep 15, 2026, 03:00 UTC

1 58372C 23177X   26258.12548611  .00036529  00000+0  13228-2 0  2586
2 58372  43.0024   1.1466 0001353 264.7565 132.9671 15.27568579    10

Suivez STARLINK-30884 en temps réel avec AllMySat

Download on the App Store